[[{"header":{"parameterUnit":"m.s-1","parameterCategory":1,"la1":30.2991,"la2":30.254,"lo1":-89.0895,"lo2":-89.0444,"dy":0.0017,"dx":0.0017,"nx":28,"ny":28,"refTime":"2024-04-18T21:00:00:Z","depth":0,"parameterNumber":2,"parameterNumberName":"U-component_of_WINDS"},"data":[0,0,0,0,0,0,0,0,0,0,0,0,0,0,0,0,0,0,0,0,0,0,0,0,0,0,0,0,0,0,0,0,0,0,0,0,0,0,0,0,0,0,0,0,0,0,0,0,0,0,0,0,0,0,0,0,0,0,0.297,0.2972,0,0.31,0.3102,0.3103,0.3166,0.3166,0.3166,0.3166,0.3297,0.33,0.3304,0,0,0,0,0,0,0,0,0,0,0,0,0,0.2772,0.2775,0.297,0.2972,0.2973,0.31,0.3102,0.3104,0.3166,0.3166,0.3166,0.3166,0.3296,0.33,0.3304,0,0,0,0,0,0,0,0,0,0,0,0,0,0.2876,0.2776,0.297,0.302,0.3025,0.31,0.3102,0.3104,0.3166,0.3166,0.3166,0.3166,0.3294,0.3299,0.3305,0.3339,0,0,0.3321,0.3323,0,0,0,0,0,0,0,0,0.287,0.2883,0.3011,0.3016,0.3023,0.3117,0.308,0.3183,0.3166,0.3112,0.3166,0.3166,0.3237,0.3247,0.3271,0.3345,0.3351,0.3321,0.3325,0.3327,0.3328,0,0,0,0,0,0,0,0.2862,0.2878,0.3022,0.3012,0.302,0.3035,0.3049,0.31,0.3173,0.3117,0.3122,0.3137,0.324,0.3266,0.3275,0.3352,0.3321,0.3326,0.3329,0.3331,0.346,0.346,0,0,0,0,0,0,0.2848,0.2871,0.3017,0.3026,0.2945,0.3038,0.3055,0.3087,0.3173,0.3186,0.3137,0.3139,0.3257,0.3269,0.328,0.3325,0.3327,0.3332,0.3335,0.346,0.346,0.346,0,0,0,0,0,0,0.2843,0.286,0.3012,0.295,0.297,0.3042,0.3077,0.3089,0.3115,0.3188,0.3201,0.315,0.3258,0.3272,0.3324,0.3331,0.3334,0.3339,0.3459,0.346,0.346,0.3417,0,0,0,0,0,0,0.2837,0.2858,0.2872,0.295,0.2973,0.3055,0.3078,0.3092,0.3125,0.3129,0.3204,0.3216,0.3259,0.3315,0.3329,0.3338,0.3343,0.3459,0.3459,0.346,0.3418,0.3415,0.3413,0,0,0,0,0,0.283,0.2855,0.2873,0.289,0.2993,0.3055,0.3068,0.3118,0.3125,0.314,0.3186,0.3214,0.3328,0.332,0.3336,0.3347,0.3459,0.3459,0.346,0.3419,0.3416,0.3413,0,0,0,0,0,0,0.2776,0.2866,0.2887,0.2938,0.2988,0.3065,0.3086,0.3113,0.3162,0.3164,0.3223,0.3239,0.3285,0.3321,0.3311,0.3384,0.3396,0.3399,0.3359,0.3357,0.3355,0.3345,0.3348,0,0,0,0,0,0.277,0.2813,0.2889,0.2927,0.2951,0.3013,0.3042,0.3076,0.313,0.3152,0.3202,0.3253,0.3301,0.3331,0.3378,0.3423,0.344,0.3438,0.3436,0.3434,0.3436,0.3462,0.3462,0.3462,0.3462,0.3462,0,0,0.2758,0.2812,0.2836,0.2917,0.296,0.3003,0.3031,0.3076,0.3108,0.3159,0.3211,0.3249,0.3309,0.3357,0.3381,0.3389,0.344,0.3434,0.3432,0.3436,0.3463,0.3463,0.3463,0.3462,0.3462,0.3462,0,0,0.2758,0.2804,0.284,0.2883,0.2948,0.2989,0.2998,0.3071,0.3098,0.3151,0.319,0.3229,0.3309,0.3351,0.3383,0.3397,0.3425,0.3411,0.34,0.3425,0.3425,0.3425,0.343,0.3431,0.3413,0.3413,0.3413,0,0.2735,0.2802,0.2855,0.2897,0.2931,0.2979,0.3016,0.3054,0.3131,0.3153,0.3161,0.3263,0.3307,0.3365,0.3369,0.3393,0.3404,0.3403,0.3421,0.3421,0.3422,0.3428,0.343,0.3411,0.3411,0.3412,0.3412,0,0.277,0.2816,0.2838,0.2912,0.2948,0.2987,0.3044,0.3075,0.3104,0.3144,0.3197,0.3252,0.3311,0.3327,0.3357,0.339,0.3393,0.3409,0.3423,0.342,0.3426,0.3428,0.3408,0.3409,0.341,0.341,0,0,0.2741,0.2843,0.285,0.2884,0.2959,0.2995,0.3036,0.3095,0.3119,0.317,0.3206,0.3272,0.3288,0.3324,0.3358,0.338,0.3388,0.3394,0.3397,0.3391,0.3427,0.3414,0.3416,0.3406,0.3406,0.3407,0.3422,0,0.2752,0.2829,0.2877,0.2934,0.2976,0.3022,0.3057,0.3107,0.3145,0.3186,0.3228,0.3274,0.3292,0.3314,0.3337,0.3382,0.3396,0.3381,0.3439,0.344,0.3423,0.3419,0.3406,0.3417,0.3425,0.3425,0.3425,0,0.2776,0.2826,0.2888,0.2958,0.2977,0.3008,0.3066,0.3105,0.3161,0.3187,0.3226,0.3261,0.3305,0.3314,0.3374,0.3364,0.339,0.3415,0.3417,0.3424,0.3433,0.3427,0.3422,0.3424,0.343,0.3429,0.3429,0,0.2749,0.2832,0.2879,0.2907,0.299,0.301,0.3045,0.3102,0.3134,0.3183,0.3204,0.3258,0.3287,0.3328,0.3375,0.3377,0.3431,0.3444,0.3454,0.3452,0.3464,0.3462,0.3463,0.3479,0.3479,0.3479,0.3479,0,0.2756,0.2792,0.2868,0.2897,0.2938,0.2992,0.3031,0.307,0.3119,0.3156,0.3198,0.3231,0.3292,0.3333,0.337,0.3415,0.3428,0.3449,0.3459,0.3446,0.3443,0.3464,0.3465,0.348,0.348,0.348,0.3479,0,0.2733,0.2786,0.2841,0.2914,0.2934,0.296,0.3023,0.3053,0.3093,0.3138,0.3152,0.3215,0.3265,0.3316,0.3383,0.3409,0.3452,0.3465,0.3433,0.3439,0.3445,0.3444,0.346,0.3465,0.3477,0.3477,0.3477,0,0.2735,0.2764,0.284,0.2868,0.2903,0.2947,0.298,0.3034,0.3066,0.3132,0.3153,0.3206,0.3252,0.3329,0.338,0.3431,0.3446,0.3448,0.3454,0.344,0.3446,0.3444,0.3447,0.3446,0.3446,0.3446,0.3445,0,0.2732,0.2757,0.2803,0.2859,0.2897,0.2943,0.299,0.301,0.3073,0.3107,0.3159,0.3194,0.3263,0.3315,0.3372,0.3407,0.3436,0.3443,0.3448,0.3435,0.3416,0.3427,0.3428,0.3443,0.3443,0.3443,0.3443,0.3443,0.2722,0.275,0.2808,0.2858,0.2899,0.2943,0.2974,0.3018,0.3062,0.3123,0.3152,0.3203,0.3258,0.3338,0.3372,0.3413,0.3421,0.3428,0.343,0.3432,0.3428,0.3409,0.3424,0.3424,0.3424,0.3424,0.3424,0,0.2722,0.2762,0.2807,0.2873,0.2912,0.2936,0.2989,0.302,0.3066,0.3114,0.3158,0.3217,0.3267,0.3322,0.3375,0.3397,0.3412,0.3409,0.3409,0.3416,0.3418,0.3408,0.3397,0.3397,0.3397,0.3397,0.3397,0.3397,0.2727,0.2774,0.2805,0.2874,0.2913,0.2965,0.2993,0.3033,0.3072,0.3136,0.3179,0.3214,0.3265,0.3322,0.3369,0.3384,0.3401,0.3395,0.3413,0.3414,0.3416,0.3418,0.341,0.3398,0.3398,0.3409,0.3409,0.3409]},{"header":{"parameterUnit":"m.s-1","parameterCategory":1,"la1":30.2991,"la2":30.254,"lo1":-89.0895,"lo2":-89.0444,"dy":0.0017,"dx":0.0017,"nx":28,"ny":28,"refTime":"2024-04-18T21:00:00:Z","depth":0,"parameterNumber":3,"parameterNumberName":"V-component_of_WINDS"},"data":[0,0,0,0,0,0,0,0,0,0,0,0,0,0,0,0,0,0,0,0,0,0,0,0,0,0,0,0,0,0,0,0,0,0,0,0,0,0,0,0,0,0,0,0,0,0,0,0,0,0,0,0,0,0,0,0,0,0,3.1047,3.1048,0,3.1071,3.1071,3.1072,3.1034,3.1032,3.1031,3.103,3.1051,3.1053,3.1054,0,0,0,0,0,0,0,0,0,0,0,0,0,3.0966,3.0967,3.1047,3.1048,3.1048,3.1071,3.1071,3.1072,3.1034,3.1032,3.1031,3.1029,3.105,3.1053,3.1055,0,0,0,0,0,0,0,0,0,0,0,0,0,3.0996,3.0968,3.1047,3.1032,3.1031,3.1071,3.1071,3.1072,3.1034,3.1032,3.103,3.1029,3.105,3.1052,3.1055,3.111,0,0,3.1063,3.1064,0,0,0,0,0,0,0,0,3.0995,3.0999,3.1034,3.1033,3.1032,3.1048,3.105,3.1085,3.1035,3.1033,3.103,3.1028,3.1051,3.1054,3.1062,3.1111,3.1112,3.1063,3.1065,3.1066,3.1067,0,0,0,0,0,0,0,3.0993,3.0998,3.1057,3.1034,3.1033,3.1023,3.1025,3.1057,3.1052,3.1033,3.103,3.1034,3.105,3.106,3.1062,3.1112,3.1063,3.1066,3.1067,3.1068,3.1208,3.121,0,0,0,0,0,0,3.0993,3.0997,3.1056,3.1057,3.1008,3.1026,3.1028,3.1044,3.1052,3.1051,3.1035,3.1032,3.1056,3.1059,3.1063,3.1129,3.1066,3.1069,3.107,3.1206,3.1208,3.1211,0,0,0,0,0,0,3.0991,3.0999,3.1055,3.1026,3.1033,3.1029,3.1048,3.1046,3.1055,3.1054,3.1053,3.1046,3.1055,3.1059,3.1099,3.1129,3.107,3.1072,3.1203,3.1207,3.121,3.126,0,0,0,0,0,0,3.0989,3.0998,3.102,3.1027,3.1034,3.1092,3.105,3.1048,3.1061,3.1056,3.1064,3.1063,3.1054,3.1095,3.1102,3.1131,3.1074,3.1201,3.1205,3.1209,3.1256,3.1265,3.1272,0,0,0,0,0,3.0986,3.1032,3.1021,3.1029,3.1062,3.1093,3.1097,3.1087,3.1063,3.1084,3.1083,3.1063,3.1124,3.11,3.1107,3.1137,3.1199,3.1204,3.1208,3.1252,3.1263,3.1272,0,0,0,0,0,0,3.1027,3.1033,3.1021,3.1071,3.1082,3.1087,3.1114,3.1098,3.1116,3.1111,3.1095,3.1097,3.114,3.1142,3.1115,3.1191,3.1158,3.1164,3.1188,3.1199,3.1207,3.1205,3.1076,0,0,0,0,0,3.1043,3.1069,3.1072,3.1116,3.1122,3.1117,3.113,3.1121,3.1132,3.1136,3.1138,3.1148,3.117,3.1184,3.1204,3.1256,3.1257,3.128,3.1289,3.1295,3.1301,3.1329,3.1339,3.1226,3.1226,3.1226,0,0,3.1074,3.108,3.1097,3.1124,3.1132,3.1159,3.1121,3.1151,3.1171,3.114,3.1178,3.118,3.119,3.1236,3.1257,3.124,3.1332,3.1301,3.1307,3.1309,3.1335,3.1345,3.1355,3.123,3.1229,3.1229,0,0,3.1144,3.1152,3.119,3.1198,3.1211,3.1207,3.1216,3.1224,3.1224,3.1262,3.124,3.1262,3.13,3.1308,3.1317,3.1391,3.1373,3.1398,3.1441,3.1468,3.1477,3.1485,3.1511,3.1521,3.1404,3.1404,3.1404,0,3.1181,3.1222,3.121,3.1242,3.1255,3.1229,3.1267,3.1275,3.1293,3.1302,3.1283,3.133,3.1334,3.1382,3.1401,3.1409,3.1418,3.1397,3.1477,3.1485,3.1492,3.1517,3.1527,3.1407,3.1406,3.1406,3.1406,0,3.1267,3.1295,3.1324,3.1343,3.1359,3.1393,3.1386,3.1402,3.1392,3.139,3.1429,3.1434,3.1455,3.1465,3.1454,3.1512,3.1501,3.1479,3.1445,3.1506,3.1529,3.1538,3.1411,3.141,3.1409,3.1408,0,0,3.1364,3.1377,3.1388,3.1397,3.1409,3.143,3.1463,3.1484,3.1498,3.1511,3.1538,3.1571,3.1552,3.1562,3.1552,3.1576,3.1634,3.1551,3.1551,3.1567,3.1698,3.1714,3.1725,3.1622,3.1624,3.1625,3.1697,0,3.1435,3.1493,3.1484,3.154,3.1566,3.1542,3.1571,3.1581,3.158,3.1601,3.1599,3.1622,3.1595,3.1601,3.1624,3.1622,3.166,3.1617,3.1646,3.1648,3.1645,3.1737,3.1755,3.1822,3.1706,3.1707,3.1708,0,3.1525,3.1543,3.1602,3.1611,3.1621,3.1647,3.1666,3.1686,3.1697,3.1694,3.1706,3.1692,3.1724,3.1689,3.1732,3.1703,3.1714,3.1716,3.1718,3.1721,3.1682,3.1743,3.1843,3.1853,3.1723,3.1722,3.1721,0,3.1591,3.163,3.167,3.1678,3.1688,3.1707,3.1712,3.1721,3.1734,3.175,3.1759,3.1778,3.1788,3.1803,3.1794,3.1769,3.1839,3.1803,3.1837,3.1837,3.1853,3.1852,3.1957,3.186,3.186,3.186,3.1859,0,3.1671,3.1708,3.17,3.1725,3.1765,3.1754,3.1794,3.1796,3.1804,3.1828,3.1808,3.183,3.1817,3.1838,3.1831,3.1868,3.1873,3.1871,3.1869,3.1874,3.1874,3.1881,3.1876,3.1862,3.1862,3.1861,3.1861,0,3.1752,3.1748,3.179,3.1797,3.1799,3.1829,3.1834,3.1857,3.1854,3.1885,3.1892,3.1888,3.1912,3.1904,3.193,3.1925,3.1972,3.1964,3.1969,3.1967,3.2002,3.1999,3.2115,3.213,3.2023,3.2024,3.2025,0,3.1804,3.1832,3.1842,3.1857,3.1864,3.1889,3.1903,3.1892,3.1907,3.1921,3.1942,3.1965,3.1983,3.2023,3.2021,3.2041,3.2033,3.2072,3.2035,3.2039,3.2034,3.2032,3.2035,3.208,3.2081,3.2082,3.2083,0,3.1896,3.1893,3.1914,3.1935,3.1953,3.1969,3.1982,3.1995,3.1985,3.2003,3.2029,3.2042,3.2069,3.2092,3.211,3.2113,3.2097,3.2094,3.2103,3.2108,3.2111,3.211,3.199,3.2092,3.2091,3.209,3.209,3.2089,3.1964,3.1988,3.1999,3.2024,3.2033,3.2047,3.2069,3.2069,3.2091,3.2112,3.2104,3.2133,3.2142,3.2165,3.2171,3.2193,3.2178,3.2191,3.2194,3.2197,3.2202,3.2107,3.2196,3.2196,3.2195,3.2195,3.2195,0,3.2056,3.2062,3.2085,3.2105,3.2125,3.2108,3.2122,3.2139,3.2165,3.2176,3.2194,3.2223,3.2245,3.2245,3.2265,3.2283,3.2276,3.2289,3.2287,3.2289,3.2214,3.2205,3.2294,3.2294,3.2294,3.2294,3.2294,3.2294,3.2106,3.2146,3.2144,3.2188,3.2194,3.2223,3.2233,3.2244,3.2253,3.2287,3.2305,3.2306,3.2312,3.2333,3.2352,3.2351,3.236,3.2376,3.2373,3.2304,3.2294,3.2284,3.2275,3.2378,3.2378,3.2445,3.2446,3.2446]}]]